STARLINK-35034

Last updated on Tue Sep 16 2025 00:02:07 GMT+0000 (Coordinated Universal Time)

1 65431U 25192AD 25258.58341435 -.01483098 00000+0 -15636-1 0 9999 2 65431 53.1596 338.0420 0001198 68.0327 198.0843 15.66415272 3628
UTC large
Height (km)
Speed (km/s)
/
Latitude / Longitude
Inclination (degrees)
Orbital Period (minutes)
Azimuth
Elevation
Range (km)
Doppler Factor

Next 0 passes for location: London (51.5072 / 0.1276)

Sorry there are no passes over London.